Regional Weather Roundup
Issued by NWS Little Rock, AR

Home | Current Version | Previous Version | Text Only | Print | Product List | Glossary Off
Versions: 1 2 3 4 5 6 7 8 9 10 11 12 13 14 15 16 17 18 19 20 21 22 23 24 25 26 27 28 29 30 31 32 33 34 35 36 37 38 39 40 41 42 43 44 45 46 47 48 49 50

000
ASUS44 KLZK 172205
RWRLZK

WEATHER ROUNDUP FOR ARKANSAS
NATIONAL WEATHER SERVICE LITTLE ROCK AR
400 PM CST WED DEC 17 2014

NOTE: "FAIR" INDICATES FEW OR NO CLOUDS BELOW 12,000 FEET WITH NO
SIGNIFICANT WEATHER AND/OR OBSTRUCTIONS TO VISIBILITY.

ARZ001-003-010-029-172300-
NORTHWEST ARKANSAS

CITY           SKY/WX    TMP DP  RH WIND       PRES   REMARKS
FAYETTEVILLE   LGT RAIN  35  33  92 NE3       30.19F
FORT SMITH     LGT RAIN  37  35  92 NE16      30.18F
HARRISON       LGT RAIN  34  31  88 E5        30.22F WCI  30
BENTONVILLE    CLOUDY    36  30  80 E6        30.18F
ROGERS         LGT RAIN  34  32  92 E7        30.19F WCI  28
SILOAM SPGS    CLOUDY    36  28  75 E3        30.19F
HIGHFILL       CLOUDY    35  33  92 E7        30.17F WCI  29
SPRINGDALE     LGT RAIN  34  30  86 E9        30.20F WCI  26
$$

ARZ004-005-016-172300-
NORTH CENTRAL ARKANSAS

CITY           SKY/WX    TMP DP  RH WIND       PRES   REMARKS
BATESVILLE     CLOUDY    39  27  60 CALM      30.27S
FLIPPIN        CLOUDY    36  28  75 CALM      30.25S
MTN HOME       LGT RAIN  35  29  78 CALM      30.24F
$$

ARZ040-041-172300-
WEST CENTRAL ARKANSAS

CITY           SKY/WX    TMP DP  RH WIND       PRES   REMARKS
MENA           CLOUDY    39  36  87 E9        30.17F
MOUNT IDA      CLOUDY    38  35  89 CALM      30.17F
$$

ARZ009-017-025-026-028-172300-
NORTHEAST ARKANSAS

CITY           SKY/WX    TMP DP  RH WIND       PRES   REMARKS
CORNING        FAIR      37  28  70 NE5       30.29F
JONESBORO      CLOUDY    38  31  76 E5        30.28F
NEWPORT        LGT RAIN  38  30  73 N3        30.30S
WALNUT RIDGE   MOCLDY    37  27  65 CALM      30.29R
BLYTHEVILLE    CLOUDY    39  32  76 NW6       30.30R
NW BLYTHEVILLE MOCLDY    39  30  70 N3        30.29R
$$

ARZ022-023-033-042-044-172300-
CENTRAL ARKANSAS

CITY           SKY/WX    TMP DP  RH WIND       PRES   REMARKS
LITTLE ROCK    CLOUDY    41  27  57 CALM      30.28R
N LITTLE ROCK  CLOUDY    39  30  71 N3        30.28R
JACKSONVILLE   CLOUDY    40  28  61 N3        30.27R
SEARCY         CLOUDY    40  28  62 CALM      30.29S
HOT SPRINGS    CLOUDY    40  29  64 E9        30.21F
RUSSELLVILLE   LGT RAIN  38  34  85 CALM      30.24F
CLINTON        LGT RAIN  37  36  93 E3        30.27F
$$

ARZ036-172300-
EAST ARKANSAS

CITY           SKY/WX    TMP DP  RH WIND       PRES   REMARKS
WEST MEMPHIS   CLOUDY    39  34  82 N7        30.27S
$$

ARZ050-053-066-070-073-172300-
SOUTHWEST ARKANSAS

CITY           SKY/WX    TMP DP  RH WIND       PRES   REMARKS
ARKADELPHIA    CLOUDY    40  34  79 NE6       30.24F
CAMDEN         CLOUDY    45  32  61 MISG      30.23F
TEXARKANA      CLOUDY    40  33  76 NE9       30.18F
EL DORADO      CLOUDY    47  35  63 N6        30.22F
DE QUEEN       CLOUDY    40  32  73 E9        30.17F
$$

ARZ056-057-069-172300-
SOUTHEAST ARKANSAS

CITY           SKY/WX    TMP DP  RH WIND       PRES   REMARKS
PINE BLUFF     CLOUDY    40  31  70 N5        30.26F
STUTTGART      CLOUDY    39  30  70 CALM      30.28S
MONTICELLO     CLOUDY    46  34  62 NE9       30.24S

$$





USA.gov is the U.S. government's official web portal to all federal, state and local government web resources and services.